Showing default

ISAT, 43879

Orbit data source: Space-Track

ISAT, 43879 is a payload satellite owned by iSky (DE) in SSO that was launched on Thu, 27 Dec 2018 UTC via a SOYUZ-2-1A launch vehicle from the Vostochny Cosmodrome (VOSTO). Payloads include a variety of satellites, spacecraft, and rockets equipped with specific instruments for various scientific and technological missions. These include communications satellites like Starlink; space stations such as the ISS; scientific satellites like the Hubble; Earth observation satellites from companies like Planet Labs, Umbra, and HawkEye 360; GPS; miniature CubeSats for education and research; and military/defense satellites.

Loading next visibility...
ISAT details
Identifier
43879, 2018-111D
Orbit
SSO
Last TLE update15 hours ago
Origin
Flag of DEiSky (DE / GER)
ManufacturerGerman Orb Sys
MissionOperational Commercial Communications
Bus & MotorCUBESAT 3U, Unknown motor
Mass3 kg wet, 3 kg dry
Launch date (UTC)
2018-12-27 (6 years ago)
Launch vehicle
SOYUZ-2-1A
Launch site
Vostochny Cosmodrome (VOSTO)
Object type
Payload
Rocket body
Debris
Shape & HBRBox + 1 Ant, 1 m
Radar Cross Section0.061 m², Small (<0.1 m²)

Expand to show TLE details & history

TLE from 15 hours ago
0 ISAT
1 43879U 18111D   24361.17575394  .00027670  00000-0  12725-2 0  9991
2 43879  97.6065 266.9934 0013310  60.2072 300.0484 15.20234810328480
Epoch: 2024-12-26T04:13Z
Definitive object data (Epoch: 2024-12-26T04:13:05.14Z)
Latitude-0.00007°
Longitude108.56308°
Altitude503.637 km
Speed7.615 km/s
True Right ascension17h 47m 58s
True Declination0° 00' 00"
Sunlit
Object was in daylight at TLE epoch
Visualization TLE readout
Latitude68.62431°
Longitude-50.98438°
Altitude511.272 km
Speed7.618 km/s
Apparent Right ascension06h 35m 16s
Apparent Declination17° 28' 50"
Sunlit
Object is in full shadow
Visualization observer readout
Local Sidereal Time18:17:35
Azimuth355.001° N
Elevation-32.455°
Doppler factor1
Orbital elements
Apogee altitude511.264 km
Perigee altitude492.948 km
Semi-major axis6,880.243 km
Eccentricity0.001331
Inclination97.6065°
RAAN266.9934°
Arg. of periapsis60.2072°
True anomaly299.91627°
Mean anomaly300.0484°
Eccentric anomaly299.98234°
Mean motion3.8031 °/min
BSTAR0.0012725
Orbital period94.66 mins
Loading maneuver chart data...
Loading historical data...
Loading historical data...
Loading historical data...
Loading historical data...
Loading historical data...
Loading historical data...
Loading historical data...

ISAT Visibility forecast

Observer location: undefined°, undefined

Span
Click to sort rows by Start time (UTC) header in descending order
Start Az.
Max El. time (UTC)
Max El. Az.
Max El.
End time (UTC)
End Az.
5 mins2024-12-27 06:04:00.821Z46.623° ENE2024-12-27 06:07:00.821Z105.193° ESE19.81°2024-12-27 06:09:00.821Z141.783° SSE
4 mins2024-12-27 07:39:00.821Z320.787° NNW2024-12-27 07:40:00.821Z298.645° NW20.415°2024-12-27 07:43:00.821Z240.61° WSW
5 mins2024-12-27 18:16:00.821Z188.966° SSW2024-12-27 18:18:00.821Z246.067° WSW38.498°2024-12-27 18:21:00.821Z334.831° NNW
|